User: anonymous
Location: Oshawa
(43.9000°N, 78.8670°W)
Time: 22:57:01
(UTC-04:00)
Language:

Cosmos 1707 Rocket - Orbit

View from above orbital plane
View from above orbital plane
View from above satellite
View from above satellite

Ground track
Ground track

The orbit data is extracted from the following two-line orbital elements,

1 16327U 85113B   14210.48477464  .00000327  00000-0  37384-4 0  4096
2 16327 082.5365 357.1594 0018672 218.2507 202.9256 14.82816318545690
Epoch (UTC): 29 July 2014 11:38:04
Eccentricity: 0.0018672
inclination: 82.5365°
perigee height: 607 km
apogee height: 633 km
right ascension of ascending node: 357.1594°
argument of perigee: 218.2507°
revolutions per day: 14.82816318
mean anomaly at epoch: 202.9256°
orbit number at epoch: 54569

The dashed part of the orbit path shows where the satellite is in the earth's shadow,  

DLR